JO-97
1 43803U 18099AX  24334.89081808  .00023589  00000-0  13098-2 0  9993
2 43803  97.4988  30.3204 0009946  92.8102 267.4268 15.13684842327703
Suomi 100
1 43804U 18099AY  24334.39503779  .00020323  00000-0  11747-2 0  9997
2 43804  97.5050  29.5241 0015252  94.8957 265.4015 15.12217236327596
ISAT
1 43879U 18111D   24335.49453948  .00038509  00000-0  18367-2 0  9998
2 43879  97.6067 241.1187 0012473 134.2360 225.9900 15.18908793324588
UWE-4
1 43880U 18111E   24335.56510982  .00027186  00000-0  13747-2 0  9996
2 43880  97.6000 240.6971 0015309 147.2648 212.9537 15.16912702324581
Sparrow
1 43881U 18111F   24335.72951132  .00031583  00000-0  14773-2 0  9997
2 43881  97.6182 243.6240 0008330 166.7895 193.3559 15.19669254322691
Prox-1
1 44339U 19036A   24335.39731716  .00027284  00000-0  40911-2 0  9996
2 44339  23.9979 231.3939 0007577  58.6005 301.5231 14.73169964289727
SONATE
1 44400U 19038Q   24335.58669670  .00057697  00000-0  10649-2 0  9993
2 44400  97.7128 338.7252 0009691 220.1176 139.9359 15.48866761299698
Taurus 1
1 44530U 19059C   24335.77062285  .00017398  00000-0  35715-2 0  9995
2 44530  98.5895 101.0886 0010621 260.9782  99.0215 14.60677212276030
Duchifat 3
1 44854U 19089C   24335.72836485  .00048808  00000-0  17583-2 0  9996
2 44854  36.9503 110.5969 0010766  52.4406 307.7321 15.27544116273578
TO-108
1 44881U 19093C   24335.76505195  .00003474  00000-0  41515-3 0  9999
2 44881  97.8151  49.3074 0015052 133.8576 226.3886 14.84758958267752
FloripaSat 1
1 44885U 19093G   24335.80091097  .00013927  00000-0  12939-2 0  9990
2 44885  97.8325  57.4561 0012373 120.7165 239.5276 14.94430958268211
RS-44
1 44909U 19096E   24335.32472465  .00000036  00000-0  99772-4 0  9998
2 44909  82.5220 354.3780 0217888  23.0760 337.9948 12.79736494230223
UPMSat 2
1 46276U 20061E   24335.43761247  .00056618  00000-0  11685-2 0  9994
2 46276  97.2757  40.7160 0000368 181.2654 178.8594 15.45678072235744
AmicalSat
1 46287U 20061R   24335.01006986  .00257623  00000-0  19922-2 0  9993
2 46287  97.3215  44.9818 0002240 289.9435  70.1586 15.71116733235235
SALSAT
1 46495U 20068K   24335.36661073  .00018403  00000-0  90984-3 0  9992
2 46495  97.8381 299.5496 0015010 100.5864 259.7060 15.17795339229474
IDEASSat
1 47458U 21006AX  24335.57877777  .00825390  31123-3  18557-2 0  9997
2 47458  97.2898  39.4384 0004478 297.7047  62.3776 15.97736194214496
CubeSX-Sirius-HSE
1 47951U 21022V   24335.80831850  .00069222  00000-0  16535-2 0  9996
2 47951  97.4409 235.0802 0006582 269.5343  90.5150 15.41244083204080
CubeSX-HSE
1 47952U 21022W   24335.74080679  .00065223  00000-0  15399-2 0  9999
2 47952  97.4406 235.1530 0006552 266.6803  93.3694 15.41614748204086
KSU-Cubesat
1 47954U 21022Y   24334.95520811  .00116114  00000-0  20502-2 0  9998
2 47954  97.4407 236.9031 0003891 251.9437 108.1391 15.49940513203849
GRBAlpha
1 47959U 21022AD  24335.82868530  .00069476  00000-0  16397-2 0  9998
2 47959  97.4407 235.4107 0006514 266.1630  93.8872 15.41607314202923
Orbicraft-Zorkiy
1 47960U 21022AE  24335.80959732  .00084946  00000-0  16711-2 0  9992
2 47960  97.4448 237.5633 0004534 259.5483 100.5256 15.46948436203728
TUBIN
1 48900U 21059X   24335.75886963  .00043552  00000-0  10393-2 0  9994
2 48900  97.6614 126.6817 0005266 215.4093 144.6804 15.41404997190472
LEDSAT
1 49069U 21073D   24335.65067048  .00047105  00000-0  12896-2 0  9999
2 49069  97.4186  46.7196 0015392  53.9983 306.2685 15.37067469181902
CUTE
1 49263U 21088D   24335.44616837  .00071906  00000-0  22210-2 0  9991
2 49263  97.4776  41.4998 0010642 211.1265 148.9348 15.33214009174986
TeikyoSat 4
1 49396U 21102B   24335.38101207  .00006293  00000-0  43361-3 0  9996
2 49396  97.4390  14.5932 0014644  71.3742 288.9074 15.06095776167752
Z-Sat
1 49399U 21102E   24335.75922135  .00009289  00000-0  54953-3 0  9998
2 49399  97.4092  17.0442 0020312  47.9109 312.3845 15.11485864168120
KOSEN 1
1 49402U 21102H   24335.07331718  .00015713  00000-0  82123-3 0  9998
2 49402  97.4017  18.5444 0018074  31.6514 328.5802 15.15821608168230
HO-113
1 50466U 21131B   24335.82599585  .00001813  00000-0  58607-3 0  9999
2 50466  98.5222  60.1216 0003956   3.3611 356.7603 14.40303142153982
IRIS-A
1 51044U 22002BN  24335.64610201  .00064121  00000-0  12734-2 0  9990
2 51044  97.3624  42.8667 0004765 151.2786 208.8726 15.46759489160000
Planetum 1
1 52738U 22057G   24334.51223436  .16479580  26697-5  24945-3 0  9995
2 52738  97.5508 111.5244 0009582 276.9617  83.0596 16.48177112140342
Foresail-1
1 52766U 22057AL  24335.61018138  .00065361  00000-0  12862-2 0  9999
2 52766  97.5972 106.7805 0007554 257.8300 102.2103 15.47002457140032
SNUGLITE 2
1 52899U 22065F   24335.15910640  .00004120  00000-0  82808-3 0  9997
2 52899  98.1414 113.4699 0007512   1.6021 358.5203 14.62131658128509
IO-117
1 53106U 22080B   24331.77042742 -.00000003  00000-0  00000-0 0  9997
2 53106  70.1300 136.0386 0008362  70.8561 289.3004  6.42557781 55710
FO-118
1 54684U 22167C   24335.81724955  .00126644  00000-0  19219-2 0  9990
2 54684  97.6142 127.1231 0008611 274.2664  85.7605 15.54116006109934
SSS-2B
1 56184U 23054G   24335.81107347  .00421906  00000-0  18263-2 0  9990
2 56184  97.3383 238.3439 0004576  99.9446 260.2340 15.83820011 92023
SO-120
1 56992U 23084BU  24335.58858425  .00162723  00000-0  23150-2 0  9994
2 56992  97.5381  99.4361 0005140 173.0239 187.1087 15.55785105 81769
MRC-100
1 56993U 23084BV  24335.80602740  .00321826  00000-0  26746-2 0  9992
2 56993  97.5339 101.3244 0003101 220.9170 139.1859 15.69176507 81913
UmKA 1 (RS40S)
1 57172U 23091G   24335.80890898  .00013043  00000-0  77255-3 0  9994
2 57172  97.5898  26.3699 0014082 272.1912  87.7705 15.11452277 78626
CubeBel-2 (EU11S)
1 57175U 23091K   24335.81930156  .00018544  00000-0  10356-2 0  9999
2 57175  97.5898  26.6515 0012479 284.3376  75.6469 15.13509173 78641
VERONIKA
1 58261U 23174F   24335.78640117  .00055328  00000-0  16039-2 0  9994
2 58261  97.4428  50.2768 0009099  15.2186 344.9329 15.35316129 59134
KAFASAT
1 58317U 23174BP  24335.55108701  .00100566  00000-0  21369-2 0  9996
2 58317  97.4358  51.8286 0007433 342.5584  17.5408 15.44607160 59238
ENSO
1 58470U 23185J   24335.79238604  .00047539  00000-0  13958-2 0  9995
2 58470  97.4053  41.7373 0010561  51.8856 308.3337 15.34939530 55587
EIRSAT-1
1 58472U 23185L   24335.83114988  .00054911  00000-0  14996-2 0  9995
2 58472  97.4043  42.1073 0009707  50.6623 309.5480 15.37178347 55619
SONATE-2
1 59112U 24043Q   24334.93558324  .00027738  00000-0  10717-2 0  9991
2 59112  97.4950  97.9524 0013673  75.0284 285.2467 15.26129447 41017
MO-122
1 60209U 24125G   24335.37339724  .00034477  00000-0  13196-2 0  9993
2 60209  97.2988 184.1747 0024791  97.8068 262.5987 15.26190431 22695
GRBBeta
1 60237U 24128C   24335.70505759  .00009117  00000-0  74645-3 0  9997
2 60237  61.9949  23.5954 0029210   8.9125 351.2477 14.99567388 21546
Curium One
1 60242U 24128H   24335.53750282  .00015136  00000-0  12111-2 0  9994
2 60242  61.9852  24.2767 0029542 359.9731   0.1352 15.00067173 21525
ROBUSTA-3A
1 60243U 24128J   24335.55985317  .00015576  00000-0  12565-2 0  9997
2 60243  61.9921  24.4948 0027608 357.4947   2.6000 14.99782069 21521
CatSat
1 60246U 24125J   24334.82403620  .00023779  00000-0  94518-3 0  9991
2 60246  97.2796 184.4611 0050044  55.6536 304.9421 15.24115851 20714
CosmoGirlSat
1 60953U 98067WT  24335.67268386  .00956775  44356-3  19577-2 0  9991
2 60953  51.6158 199.1334 0011177 225.8438 134.1653 15.98712903 14621
Sakura
1 60954U 98067WU  24331.92073042  .02385888  73236-2  20920-2 0  9994
2 60954  51.6117 216.7989 0010324 216.2319 143.7999 16.14071451 14055
CySat-1
1 61501U 98067WZ  24335.38266670  .00357007  00000-0  28017-2 0  9990
2 61501  51.6321 208.5398 0012461 219.0807 140.9291 15.69809207  8303
DORA
1 61502U 98067XA  24332.70883558  .04920938  11721-4  29413-2 0  9994
2 61502  51.5983 218.3607 0014552 212.9871 147.0239 16.17428486  7922
AO-123
1 99130U 24099A   24334.56971065  .00005552  00000-0  23249-3 0 00004
2 99130 097.3805 198.9796 0018077 150.5091 012.6031 15.23458563000015
